Flag for U.S.A. Weather past 2 weeks in Lincoln, Nebraska, U.S.A.

Now
56 °F

Passing clouds.


Feels Like: 53 °F
Forecast: 52 / 74 °F
Wind: 12 mph from Southeast

Location: Lincoln Municipal Airport

Current Time: Oct 22, 2014 at 5:38:41 AM

Latest Report: Oct 22, 2014 at 4:54 AM


Visibility: 10 mi

Pressure: 30.06 "Hg

Humidity: 62%

Dew point: 43 °F

Location of LincolnLocation

Historic Weather in Lincoln — Graph

°F

Lincoln temperature yesterday

Maximum temperature yesterday: 77 °F (at 1:54 PM)
Minimum temperature yesterday: 37 °F (at 5:54 AM)
Average temperature yesterday: 57 °F

Past Weeks' High & Low Weather Summary

 TemperatureHumidityPressure
High79 °F (Oct 16, 2:54 PM)96% (Oct 20, 6:54 AM)31.00 "Hg (Oct 20, 6:54 AM)
Low30 °F (Oct 11, 7:54 AM)23% (Oct 16, 3:57 PM)29.67 "Hg (Oct 12, 3:54 PM)
Average54 °F62%30.02 "Hg
* Reported Oct 7 3:54 AM — Oct 22 3:54 AM, Lincoln, Weather by CustomWeather, © 2014

Note: Actual official high and low records may vary slightly from our data, if they occured in-between our weather recording intervals... More about our weather records

Advertising

Lincoln weather history for previous 24 hours

 ConditionsComfort  
Time TempWeatherWind HumidityBarometerVisibility
3:54 AM
Oct 22
57 °FPassing clouds.9 mph60%30.06 "Hg10 mi
2:54 AM58 °FClear.13 mph58%30.04 "Hg10 mi
1:54 AM60 °FClear.16 mph52%30.02 "Hg10 mi
12:54 AM61 °FClear.15 mph50%30.02 "Hg10 mi
11:54 PM
Oct 21
61 °FClear.13 mph50%30.03 "Hg10 mi
10:54 PM62 °FClear.12 mph46%30.04 "Hg10 mi
9:54 PM62 °FClear.10 mph44%30.04 "Hg10 mi
8:54 PM63 °FClear.10 mph43%30.04 "Hg10 mi
7:54 PM63 °FClear.9 mph45%30.04 "Hg10 mi
6:54 PM66 °FSunny.9 mph43%30.02 "Hg10 mi
5:54 PM72 °FSunny.12 mph34%30.01 "Hg10 mi
4:54 PM76 °FSunny.16 mph30%30.01 "Hg10 mi
3:54 PM77 °FSunny.15 mph31%30.02 "Hg10 mi
2:54 PM77 °FSunny.14 mph31%30.03 "Hg10 mi
1:54 PM77 °FSunny.10 mph32%30.05 "Hg10 mi
12:54 PM74 °FSunny.10 mph35%30.08 "Hg10 mi
11:54 AM69 °FSunny.7 mph47%30.10 "Hg10 mi
10:54 AM60 °FSunny.5 mph58%30.13 "Hg10 mi
9:54 AM51 °FSunny.No wind69%30.14 "Hg8 mi
8:54 AM43 °FSunny.No wind82%30.14 "Hg8 mi
7:54 AM38 °FClear.No wind90%30.13 "Hg10 mi
6:54 AM37 °FClear.3 mph86%30.13 "Hg10 mi
5:54 AM37 °FClear.3 mph89%30.11 "Hg10 mi
Weather by CustomWeather, © 2014

See weather overviewHow to use our weather pages